Regional Weather Roundup
Issued by NWS State College, PA

Home | Current Version | Previous Version | Graphics & Text | Print | Product List | Glossary Off
Versions: 1 2 3 4 5 6 7 8 9 10 11 12 13 14 15 16 17 18 19 20 21 22 23 24 25 26 27 28 29 30 31 32 33 34 35 36 37 38 39 40 41 42 43 44 45 46 47 48 49 50

000
ASUS41 KCTP 300610
RWRCTP

REGIONAL WEATHER ROUNDUP
NATIONAL WEATHER SERVICE STATE COLLEGE PA
100 AM EST FRI JAN 30 2015

Note: "fair" indicates few or no clouds below 12,000 feet with no
significant weather and/or obstructions to visibility.

* = STATION THAT DOES NOT REPORT PRECIPITATION /E.G. RAIN...SNOW...ETC/
    THUNDER OR FOG.

PAZ002>004-007>009-013>016-020>023-029>032-300700-
WESTERN PENNSYLVANIA

CITY           SKY/WX    TMP DP  RH WIND       PRES   REMARKS
ERIE           CLOUDY    30  27  88 W14G21    29.94S FOG
MEADVILLE      LGT SNOW  28  25  88 W10       29.91F FOG
FRANKLIN*      CLOUDY    27  23  86 W9        29.92S
NEW CASTLE     LGT SNOW  29  28  96 W6        29.98S FOG
BEAVER COUNTY  NOT AVBL
BUTLER*        CLOUDY    28  25  86 W8        29.97R
PITTSBURGH INT LGT SNOW  30  28  92 W12       29.97R FOG
PITTSBURGH     CLOUDY    30  24  78 NW13G23   29.95R HAZE
INDIANA*       CLOUDY    30  28  93 NW7G20    29.94R FOG
LATROBE        LGT RAIN  32  30  93 W15G26    29.96R
WASHINGTON CO* CLOUDY    30  28  93 W7        29.99S
$$

PAZ004>006-010>012-017>019-024>028-033>037-041-042-045-046-049>053-300700-
CENTRAL PENNSYLVANIA

CITY           SKY/WX    TMP DP  RH WIND       PRES   REMARKS
BRADFORD       LGT SNOW  25  21  85 NW14G21   29.80S FOG     WCI  13
DUBOIS         LGT SNOW  27  24  89 NW12      29.84R FOG
CLEARFIELD     LGT SNOW  30  24  78 NW18G25   29.84R
JOHNSTOWN      MIX PCPN  29  24  82 W22G31    29.83R
ALTOONA        CLOUDY    34  27  75 W18G25    29.86R
STATE COLLEGE  CLOUDY    27  26  94 SW9       29.84R
WILLIAMSPORT   LGT SNOW  28  23  81 SE6       29.88R
SELINSGROVE    CLOUDY    28  24  85 SW6       29.89F
FT INDIANTOWN  CLOUDY    27  24  91 N2        29.91F
CAPITAL CITY   CLOUDY    29  25  85 CALM      29.91F
HARRISBURG     CLOUDY    29  25  85 CALM      29.90F
YORK           CLOUDY    30  26  85 W3        29.89F
$$

PAZ038>040-043-044-047-048-054-055-060>062-067>071-300700-
EASTERN PENNSYLVANIA

CITY           SKY/WX    TMP DP  RH WIND       PRES   REMARKS
SCRANTON       LGT SNOW  27  23  85 SW5       29.85F FOG
MOUNT POCONO   LGT SNOW  23  20  88 S9        29.80F FOG     WCI  13
ALLENTOWN      FLURRIES  29  24  82 CALM      29.92F
QUAKERTOWN*    CLOUDY    28  27  93 CALM      29.92F
READING        CLOUDY    30  24  78 CALM      29.91F
LANCASTER      CLOUDY    29  24  82 CALM      29.90F
COATESVILLE    CLOUDY    32  25  74 CALM      29.90F
POTTSTOWN      MIX PCPN  30  25  81 CALM      29.92F
BLUE BELL      CLOUDY    32  27  80 CALM      29.92F
DOYLESTOWN     CLOUDY    27  26  96 CALM      29.92F
WILLOW GROVE   NOT AVBL
NORTH PHILA    CLOUDY    33  24  69 E3        29.95F
PHILADELPHIA   FLURRIES  35  23  61 CALM      29.94F
$$


USA.gov is the U.S. government's official web portal to all federal, state and local government web resources and services.